SCP
1 1 1 1 1 1 1 1 1 1 1 1 1 1 1 1 0 1 1 1 1 1 1 1 1 1 1 1 1 1 1 1 1 0 0 0 0 0 0 0 0 0 0
1 1 1 1 1 1 1 1 1 1 1 1 1 1 1 1 1 1 1 1 1 1 1 1 1 1 1 1 1 1 1 1 1 1 0 0 0 0 0 0 0 0 0
1 1 1 1 1 1 1 1 1 2 2 2 1 1 1 1 1 1 1 1 1 1 1 1 1 2 1 1 1 1 1 1 1 1 1 0 0 0 0 0 0 0 0
1 1 1 1 1 1 1 1 2 2 2 2 1 1 1 1 1 1 1 1 2 2 2 2 2 2 2 2 1 1 1 1 1 1 1 1 1 0 0 0 0 1 0
1 1 1 1 1 1 1 1 2 2 2 2 1 1 1 1 1 1 1 1 2 2 2 2 2 2 2 2 2 2 2 1 1 1 1 1 1 1 1 1 1 1 1
1 1 1 1 1 1 1 2 2 2 2 2 1 1 1 1 1 1 1 1 1 1 1 1 1 1 2 2 2 3 2 2 1 1 1 1 1 1 1 1 1 1 1
1 1 1 1 2 2 2 2 2 2 2 2 1 1 1 1 1 1 1 1 1 1 1 1 1 2 2 2 3 3 3 2 1 1 1 1 1 1 1 1 1 1 1
1 1 2 2 2 2 2 2 2 2 2 2 2 1 1 1 1 1 1 1 1 1 1 1 1 2 2 3 3 2 2 2 1 1 1 1 1 1 1 1 1 1 1
1 2 2 2 2 2 2 2 2 1 1 1 2 2 1 1 1 1 1 1 1 1 1 1 1 1 2 2 2 1 1 1 1 1 1 1 1 1 1 1 1 1 1
2 2 3 3 3 2 2 2 1 1 1 1 2 2 1 1 1 1 0 0 1 1 1 1 1 1 1 2 1 1 0 0 1 1 1 1 1 1 1 1 1 1 1
2 2 3 3 3 3 3 2 1 1 1 1 1 2 1 1 1 1 1 0 0 1 1 1 1 1 1 1 1 1 0 0 0 0 0 1 1 1 1 1 1 1 1
2 2 3 3 3 3 3 2 2 1 1 1 2 2 2 2 1 1 1 1 0 0 1 1 1 1 1 1 1 1 0 0 0 0 0 0 0 1 1 1 1 1 1
3 3 3 3 3 3 3 3 2 2 2 2 2 3 2 2 2 1 1 1 1 0 1 1 1 1 1 1 1 1 0 0 0 0 0 0 0 0 0 1 1 1 1
3 3 3 4 4 4 3 3 2 3 3 3 3 3 3 2 1 1 1 1 1 1 1 1 1 1 1 1 1 1 0 0 0 0 0 0 0 0 0 0 0 0 0
4 4 5 6 6 5 3 2 3 3 3 3 3 3 3 2 1 1 2 2 1 1 1 1 1 1 1 1 1 1 0 0 0 0 0 0 0 0 0 0 0 0 0
5 6 6 6 6 4 3 2 2 2 3 3 3 3 2 2 2 2 2 2 2 1 1 1 1 1 1 1 1 1 1 1 0 0 0 0 0 0 0 0 0 0 0
6 6 5 5 4 3 3 2 2 2 2 2 2 2 2 2 2 2 3 2 2 2 1 1 1 1 1 1 1 1 1 1 1 0 0 0 0 0 0 0 0 0 0
6 5 4 3 3 4 3 2 2 2 2 2 2 2 2 2 3 3 3 2 2 2 2 2 1 1 1 1 1 1 1 1 1 0 0 0 0 0 0 0 0 0 0
4 3 3 3 3 4 4 3 2 2 2 2 2 2 2 3 3 3 2 2 1 2 2 2 1 1 1 1 1 1 1 1 1 1 0 0 0 0 0 0 0 0 0
3 3 3 3 3 4 4 4 3 2 2 2 2 2 2 3 2 2 2 2 2 2 2 2 2 1 1 1 1 1 1 1 1 1 1 1 1 0 0 0 0 0 0
3 4 4 4 4 5 5 5 4 3 3 3 3 3 3 2 2 2 2 2 2 2 3 3 2 1 1 1 1 1 1 1 1 1 1 1 1 1 1 1 0 0 0
4 4 5 6 6 5 5 4 4 4 4 4 3 4 3 2 2 1 1 1 1 1 2 2 2 2 1 1 1 1 1 1 1 1 1 1 2 2 1 1 1 0 0
4 5 6 6 6 5 4 3 3 4 4 4 4 5 4 2 2 2 1 1 1 1 1 2 2 2 2 2 2 1 1 1 1 1 1 1 1 2 2 1 1 1 0
5 5 6 6 6 5 3 1 2 4 5 4 5 5 4 3 2 2 2 2 2 1 1 1 1 2 2 2 2 2 2 1 1 1 2 2 2 2 2 1 1 1 0
5 5 5 5 6 5 2 1 2 5 6 5 4 4 3 3 2 2 2 2 2 2 2 1 1 1 1 1 1 1 2 2 2 2 3 3 3 3 3 2 2 1 1
6 5 5 5 5 4 2 1 2 5 6 5 4 3 3 2 2 2 2 3 3 3 3 2 1 1 1 1 1 1 2 2 2 3 4 4 4 4 3 3 2 2 2
Wind_Speed
3 3 2 2 2 2 2 2 2 2 2 2 2 2 2 2 3 3 5 9 7 6 6 7 7 7 7 7 7 7 7 7 7 8 8 8 8 8 8 8 8 8 8
2 2 2 1 1 1 2 1 2 1 1 1 1 1 1 2 3 3 4 7 8 7 6 6 6 7 7 7 7 7 7 7 7 7 8 8 8 8 9 9 9 9 8
2 1 1 1 2 2 2 1 1 1 1 2 1 2 2 2 3 3 3 3 6 8 8 7 6 7 7 7 7 8 8 8 7 8 8 8 9 9 9 10 10 10 9
1 1 1 1 1 1 1 1 1 1 1 1 1 1 2 2 2 3 3 3 3 4 8 8 7 6 7 8 8 8 8 8 8 8 8 8 8 8 8 9 9 10 10
1 1 0 1 1 1 1 1 1 1 1 0 1 2 1 2 2 2 2 3 3 3 3 7 8 6 7 7 8 8 9 8 8 8 9 9 9 8 9 9 9 9 9
1 1 1 1 1 0 0 1 0 0 1 1 1 1 1 1 1 2 3 3 3 4 4 4 5 6 7 6 6 7 8 9 9 9 10 10 10 9 9 9 10 10 10
1 1 1 1 1 0 1 1 1 1 1 1 1 2 2 2 1 1 2 2 2 3 3 3 3 2 5 8 6 5 6 8 9 9 9 10 9 9 10 10 10 10 10
2 2 1 1 1 1 1 1 2 2 1 1 2 2 2 2 2 1 2 2 1 2 3 3 2 2 2 2 4 5 4 5 5 6 7 8 9 9 9 10 10 9 9
1 1 2 2 1 2 1 2 2 2 2 2 2 2 1 1 1 2 1 1 0 0 1 2 1 1 2 1 2 4 3 2 3 4 5 6 6 8 9 10 10 9 9
2 2 2 2 2 2 1 3 2 2 3 2 1 2 2 2 1 1 1 1 1 0 1 1 1 1 1 1 2 3 2 1 1 2 2 3 4 4 6 7 8 8 9
2 3 2 2 2 2 2 2 1 2 2 2 2 2 2 2 3 2 1 1 1 0 1 1 1 1 1 0 1 3 4 2 2 0 0 1 1 1 2 4 5 5 6
2 3 3 3 3 3 2 2 3 3 2 2 3 2 2 2 2 2 2 2 1 0 1 1 0 1 1 1 3 6 5 4 2 2 1 2 2 1 0 1 3 4 4
2 2 2 2 3 2 3 3 3 2 3 3 3 3 2 3 2 2 2 2 1 2 2 1 1 1 1 2 3 5 5 5 4 3 3 3 3 3 2 1 1 2 3
1 0 2 2 3 3 3 2 3 3 2 3 3 3 2 2 2 2 3 2 2 2 2 2 1 1 1 2 3 1 4 5 4 4 3 4 3 3 3 2 2 1 1
1 1 2 2 2 2 2 2 2 2 2 2 2 2 2 2 2 2 2 3 3 3 1 2 2 1 1 2 2 2 3 6 5 4 4 4 4 4 4 4 3 3 2
1 1 1 2 2 1 1 2 1 1 1 1 1 1 2 2 1 2 2 3 3 3 1 1 1 2 1 2 3 2 4 7 7 5 5 4 4 4 4 4 4 4 4
1 1 2 2 2 2 1 1 1 1 1 1 1 1 2 2 2 2 2 2 2 2 2 1 2 3 2 2 2 2 3 3 5 7 6 5 5 5 5 5 5 5 5
1 1 2 2 2 2 1 1 1 1 1 1 2 1 2 1 1 2 1 2 1 1 2 2 2 2 2 2 2 1 2 3 4 8 7 6 6 6 6 6 6 6 6
2 2 2 2 2 1 1 1 1 1 1 1 2 1 1 1 1 0 1 1 1 1 1 2 2 2 2 2 2 2 3 1 2 6 7 7 6 6 6 6 6 6 6
2 1 1 1 1 1 1 0 0 0 1 2 2 2 2 1 1 1 1 1 1 1 1 2 2 2 2 2 2 1 2 2 1 2 3 4 6 6 6 6 6 5 5
2 1 1 1 0 0 0 0 1 1 1 2 2 2 3 4 6 4 3 2 1 1 1 1 2 2 1 1 1 1 1 1 2 1 0 1 2 2 3 4 4 5 4
2 2 2 1 1 1 4 4 1 1 1 1 1 1 2 3 4 5 5 6 5 3 2 1 0 1 1 1 1 1 1 1 0 1 1 1 0 1 1 2 5 5 4
3 2 2 2 3 3 4 4 2 1 1 1 2 2 1 3 2 3 4 3 3 4 4 3 2 2 1 0 1 2 1 1 2 1 1 1 1 1 1 5 7 4 3
3 3 3 3 2 3 3 2 2 1 1 2 2 2 2 3 4 3 2 3 4 4 4 2 2 2 3 2 1 2 1 1 0 1 1 2 1 1 0 3 7 5 3
3 3 3 3 3 3 4 3 1 2 2 2 3 3 3 3 4 3 2 3 3 3 5 5 5 4 4 3 2 1 1 2 1 0 0 3 2 1 1 1 5 8 6
4 3 3 3 3 2 4 3 1 1 2 2 3 4 5 4 5 4 2 2 2 2 3 3 3 2 2 2 1 1 2 2 2 1 1 2 2 2 2 1 1 3 4
Wind_Direction
87 88 83 68 72 80 108 100 94 103 117 124 116 120 134 139 136 146 131 146 160 170 175 177 178 181 180 183 187 188 189 191 188 188 192 198 197 196 196 197 198 198 200
89 98 116 98 81 74 63 78 99 114 119 110 126 124 144 151 142 155 150 150 164 175 181 185 185 185 187 191 194 196 197 202 200 198 202 206 208 207 206 208 209 208 208
111 134 119 134 88 88 102 107 90 114 141 144 142 140 141 146 145 157 164 162 164 175 186 192 193 196 197 199 200 200 202 205 204 202 204 208 211 213 214 215 216 216 216
146 187 140 99 98 139 131 126 146 114 116 143 134 136 135 150 161 168 172 176 176 166 174 187 197 204 206 208 206 207 208 209 212 212 213 215 215 215 215 216 219 220 220
165 209 126 94 212 176 154 179 87 308 157 164 171 156 150 155 159 164 166 173 175 188 178 165 188 203 212 217 217 216 217 217 217 219 219 220 220 219 219 219 222 223 223
185 231 193 170 259 200 139 59 51 304 262 236 215 122 142 140 171 165 192 182 182 192 200 185 185 193 203 214 222 225 224 224 222 225 225 223 225 224 223 224 225 226 226
211 254 281 168 233 192 248 227 237 201 213 194 210 171 148 147 142 177 201 203 181 189 200 209 220 213 186 195 212 223 230 231 228 226 226 226 227 227 226 228 230 229 228
244 230 242 239 205 191 206 226 242 253 224 215 258 237 186 163 164 137 172 191 196 194 193 196 200 218 254 184 151 191 223 236 240 234 229 227 229 229 230 231 231 230 228
249 270 258 263 249 232 195 210 225 245 257 236 266 285 276 163 145 137 117 112 98 357 210 132 163 177 210 208 162 152 192 228 245 247 239 234 237 235 231 232 230 225 225
253 249 252 246 250 252 222 231 197 236 258 256 225 271 302 339 263 170 169 123 108 131 35 18 103 145 178 187 93 70 95 144 217 247 257 250 241 236 232 229 230 226 224
251 254 244 241 239 246 248 267 250 251 245 266 270 255 239 222 244 237 221 188 163 88 94 86 40 40 53 81 110 83 97 98 107 116 336 316 266 241 230 228 231 227 223
231 242 243 242 244 248 235 240 242 231 251 263 272 264 251 246 237 234 228 221 192 151 98 79 92 98 102 86 73 76 80 86 97 101 71 30 23 34 41 241 233 230 228
225 218 245 243 251 242 236 238 233 246 235 235 248 260 268 272 279 271 249 240 220 184 166 169 164 130 115 97 85 89 88 86 80 79 77 63 47 41 44 39 340 258 246
265 270 257 250 249 246 241 236 237 229 227 239 251 265 269 273 273 262 259 258 244 214 192 170 144 130 107 106 87 154 100 92 83 82 83 76 66 56 48 43 25 7 303
250 238 259 257 245 235 240 248 261 255 238 253 256 243 262 274 277 283 267 254 260 256 217 159 159 130 148 111 105 109 96 90 89 84 87 87 78 68 60 57 48 42 45
285 284 271 266 263 253 237 243 248 249 249 260 278 301 289 281 281 277 270 259 258 268 274 126 119 119 88 112 107 108 105 114 93 81 75 78 76 73 69 63 59 55 52
214 226 260 259 248 243 243 227 267 252 247 275 263 250 271 301 288 274 263 263 259 253 235 143 108 103 101 97 108 125 120 114 98 87 81 78 74 71 68 68 64 61 60
210 224 241 241 241 235 229 232 258 272 271 287 294 292 286 275 261 291 286 268 258 260 230 170 141 133 126 132 123 132 101 97 100 99 95 84 80 78 77 75 71 65 59
195 208 220 237 247 234 206 237 253 271 318 336 329 315 306 319 292 338 299 283 255 211 213 183 154 132 136 132 134 122 102 86 96 121 122 108 92 84 80 77 72 67 61
186 186 200 221 227 219 194 172 218 356 25 15 17 17 18 14 11 326 285 299 287 229 187 190 151 145 142 146 164 162 140 136 89 79 91 109 118 117 101 87 75 66 61
173 166 165 137 132 160 62 106 140 105 75 57 50 51 60 56 43 21 4 7 346 284 226 201 164 149 146 171 197 220 169 153 122 43 29 112 138 135 135 119 92 72 64
147 135 127 124 107 71 59 56 13 65 81 63 45 55 96 97 86 75 52 38 23 350 327 300 155 173 189 203 226 233 217 251 236 79 303 334 24 39 86 82 90 92 83
141 127 117 109 97 71 66 79 59 349 71 48 32 24 22 67 82 92 102 114 73 46 17 333 346 328 305 227 236 238 238 286 327 40 299 316 7 355 68 94 104 104 97
126 122 117 114 105 70 62 75 88 125 71 63 56 40 45 57 42 34 74 76 68 54 32 14 9 354 6 357 259 245 239 199 172 98 318 293 288 297 47 120 133 135 131
123 122 119 109 96 72 52 43 55 126 105 88 74 62 62 77 46 35 81 81 74 82 87 71 49 47 44 28 345 295 263 255 273 153 325 290 291 291 252 189 148 162 167
126 126 110 97 91 71 67 59 12 131 103 103 104 97 75 54 55 44 79 86 74 47 52 83 86 98 98 95 129 293 287 280 299 313 57 285 284 291 271 217 185 176 184